Index of /20260410/WXO-DD/model_rdps/10km/00/061
Name Last modified Size Description
Parent Directory -
20260410T00Z_MSC_RDPS_AbsoluteVorticity_IsbL-0250_RLatLon0.09_PT061H.grib2 2026-04-10 03:07 605K
20260410T00Z_MSC_RDPS_AbsoluteVorticity_IsbL-0500_RLatLon0.09_PT061H.grib2 2026-04-10 03:07 687K
20260410T00Z_MSC_RDPS_AbsoluteVorticity_IsbL-0700_RLatLon0.09_PT061H.grib2 2026-04-10 03:07 623K
20260410T00Z_MSC_RDPS_AbsoluteVorticity_IsbL-0850_RLatLon0.09_PT061H.grib2 2026-04-10 03:07 755K
20260410T00Z_MSC_RDPS_AirTemp_AGL-120m_RLatLon0.09_PT061H.grib2 2026-04-10 03:07 385K
20260410T00Z_MSC_RDPS_AirTemp_AGL-2m_RLatLon0.09_PT061H.grib2 2026-04-10 03:07 645K
20260410T00Z_MSC_RDPS_AirTemp_AGL-40m_RLatLon0.09_PT061H.grib2 2026-04-10 03:07 419K
20260410T00Z_MSC_RDPS_AirTemp_AGL-80m_RLatLon0.09_PT061H.grib2 2026-04-10 03:07 410K
20260410T00Z_MSC_RDPS_AirTemp_IsbL-0001_RLatLon0.09_PT061H.grib2 2026-04-10 03:07 235K
20260410T00Z_MSC_RDPS_AirTemp_IsbL-0005_RLatLon0.09_PT061H.grib2 2026-04-10 03:07 262K
20260410T00Z_MSC_RDPS_AirTemp_IsbL-0010_RLatLon0.09_PT061H.grib2 2026-04-10 03:07 354K
20260410T00Z_MSC_RDPS_AirTemp_IsbL-0020_RLatLon0.09_PT061H.grib2 2026-04-10 03:07 371K
20260410T00Z_MSC_RDPS_AirTemp_IsbL-0030_RLatLon0.09_PT061H.grib2 2026-04-10 03:07 396K
20260410T00Z_MSC_RDPS_AirTemp_IsbL-0050_RLatLon0.09_PT061H.grib2 2026-04-10 03:07 331K
20260410T00Z_MSC_RDPS_AirTemp_IsbL-0100_RLatLon0.09_PT061H.grib2 2026-04-10 03:07 395K
20260410T00Z_MSC_RDPS_AirTemp_IsbL-0150_RLatLon0.09_PT061H.grib2 2026-04-10 03:07 420K
20260410T00Z_MSC_RDPS_AirTemp_IsbL-0175_RLatLon0.09_PT061H.grib2 2026-04-10 03:07 412K
20260410T00Z_MSC_RDPS_AirTemp_IsbL-0200_RLatLon0.09_PT061H.grib2 2026-04-10 03:07 412K
20260410T00Z_MSC_RDPS_AirTemp_IsbL-0225_RLatLon0.09_PT061H.grib2 2026-04-10 03:07 413K
20260410T00Z_MSC_RDPS_AirTemp_IsbL-0250_RLatLon0.09_PT061H.grib2 2026-04-10 03:07 420K
20260410T00Z_MSC_RDPS_AirTemp_IsbL-0275_RLatLon0.09_PT061H.grib2 2026-04-10 03:07 404K
20260410T00Z_MSC_RDPS_AirTemp_IsbL-0300_RLatLon0.09_PT061H.grib2 2026-04-10 03:07 436K
20260410T00Z_MSC_RDPS_AirTemp_IsbL-0350_RLatLon0.09_PT061H.grib2 2026-04-10 03:07 424K
20260410T00Z_MSC_RDPS_AirTemp_IsbL-0400_RLatLon0.09_PT061H.grib2 2026-04-10 03:07 389K
20260410T00Z_MSC_RDPS_AirTemp_IsbL-0450_RLatLon0.09_PT061H.grib2 2026-04-10 03:07 395K
20260410T00Z_MSC_RDPS_AirTemp_IsbL-0500_RLatLon0.09_PT061H.grib2 2026-04-10 03:07 406K
20260410T00Z_MSC_RDPS_AirTemp_IsbL-0550_RLatLon0.09_PT061H.grib2 2026-04-10 03:07 427K
20260410T00Z_MSC_RDPS_AirTemp_IsbL-0600_RLatLon0.09_PT061H.grib2 2026-04-10 03:07 344K
20260410T00Z_MSC_RDPS_AirTemp_IsbL-0650_RLatLon0.09_PT061H.grib2 2026-04-10 03:07 355K
20260410T00Z_MSC_RDPS_AirTemp_IsbL-0700_RLatLon0.09_PT061H.grib2 2026-04-10 03:07 375K
20260410T00Z_MSC_RDPS_AirTemp_IsbL-0750_RLatLon0.09_PT061H.grib2 2026-04-10 03:07 412K
20260410T00Z_MSC_RDPS_AirTemp_IsbL-0800_RLatLon0.09_PT061H.grib2 2026-04-10 03:07 466K
20260410T00Z_MSC_RDPS_AirTemp_IsbL-0850_RLatLon0.09_PT061H.grib2 2026-04-10 03:07 512K
20260410T00Z_MSC_RDPS_AirTemp_IsbL-0875_RLatLon0.09_PT061H.grib2 2026-04-10 03:07 524K
20260410T00Z_MSC_RDPS_AirTemp_IsbL-0900_RLatLon0.09_PT061H.grib2 2026-04-10 03:07 527K
20260410T00Z_MSC_RDPS_AirTemp_IsbL-0925_RLatLon0.09_PT061H.grib2 2026-04-10 03:07 523K
20260410T00Z_MSC_RDPS_AirTemp_IsbL-0950_RLatLon0.09_PT061H.grib2 2026-04-10 03:07 523K
20260410T00Z_MSC_RDPS_AirTemp_IsbL-0970_RLatLon0.09_PT061H.grib2 2026-04-10 03:07 532K
20260410T00Z_MSC_RDPS_AirTemp_IsbL-0985_RLatLon0.09_PT061H.grib2 2026-04-10 03:07 526K
20260410T00Z_MSC_RDPS_AirTemp_IsbL-1000_RLatLon0.09_PT061H.grib2 2026-04-10 03:07 513K
20260410T00Z_MSC_RDPS_AirTemp_IsbL-1015_RLatLon0.09_PT061H.grib2 2026-04-10 03:07 512K
20260410T00Z_MSC_RDPS_Albedo_Sfc_RLatLon0.09_PT061H.grib2 2026-04-10 03:07 162K
20260410T00Z_MSC_RDPS_CAPE_Sfc_RLatLon0.09_PT061H.grib2 2026-04-10 03:07 1.6M
20260410T00Z_MSC_RDPS_CIN_Sfc_RLatLon0.09_PT061H.grib2 2026-04-10 03:07 1.1M
20260410T00Z_MSC_RDPS_CloudWater_EAtm_RLatLon0.09_PT061H.grib2 2026-04-10 03:07 213K
20260410T00Z_MSC_RDPS_ConvectivePrecip-Accum_Sfc_RLatLon0.09_PT061H.grib2 2026-04-10 03:07 1.2M
20260410T00Z_MSC_RDPS_DewPointDepression_AGL-2m_RLatLon0.09_PT061H.grib2 2026-04-10 03:07 390K
20260410T00Z_MSC_RDPS_DewPointDepression_IsbL-0001_RLatLon0.09_PT061H.grib2 2026-04-10 03:07 193
20260410T00Z_MSC_RDPS_DewPointDepression_IsbL-0005_RLatLon0.09_PT061H.grib2 2026-04-10 03:07 193
20260410T00Z_MSC_RDPS_DewPointDepression_IsbL-0010_RLatLon0.09_PT061H.grib2 2026-04-10 03:07 193
20260410T00Z_MSC_RDPS_DewPointDepression_IsbL-0020_RLatLon0.09_PT061H.grib2 2026-04-10 03:07 193
20260410T00Z_MSC_RDPS_DewPointDepression_IsbL-0030_RLatLon0.09_PT061H.grib2 2026-04-10 03:07 22K
20260410T00Z_MSC_RDPS_DewPointDepression_IsbL-0050_RLatLon0.09_PT061H.grib2 2026-04-10 03:07 108K
20260410T00Z_MSC_RDPS_DewPointDepression_IsbL-0100_RLatLon0.09_PT061H.grib2 2026-04-10 03:07 128K
20260410T00Z_MSC_RDPS_DewPointDepression_IsbL-0150_RLatLon0.09_PT061H.grib2 2026-04-10 03:07 142K
20260410T00Z_MSC_RDPS_DewPointDepression_IsbL-0175_RLatLon0.09_PT061H.grib2 2026-04-10 03:07 169K
20260410T00Z_MSC_RDPS_DewPointDepression_IsbL-0200_RLatLon0.09_PT061H.grib2 2026-04-10 03:07 203K
20260410T00Z_MSC_RDPS_DewPointDepression_IsbL-0225_RLatLon0.09_PT061H.grib2 2026-04-10 03:07 238K
20260410T00Z_MSC_RDPS_DewPointDepression_IsbL-0250_RLatLon0.09_PT061H.grib2 2026-04-10 03:07 277K
20260410T00Z_MSC_RDPS_DewPointDepression_IsbL-0275_RLatLon0.09_PT061H.grib2 2026-04-10 03:07 292K
20260410T00Z_MSC_RDPS_DewPointDepression_IsbL-0300_RLatLon0.09_PT061H.grib2 2026-04-10 03:07 312K
20260410T00Z_MSC_RDPS_DewPointDepression_IsbL-0350_RLatLon0.09_PT061H.grib2 2026-04-10 03:07 316K
20260410T00Z_MSC_RDPS_DewPointDepression_IsbL-0400_RLatLon0.09_PT061H.grib2 2026-04-10 03:07 331K
20260410T00Z_MSC_RDPS_DewPointDepression_IsbL-0450_RLatLon0.09_PT061H.grib2 2026-04-10 03:07 339K
20260410T00Z_MSC_RDPS_DewPointDepression_IsbL-0500_RLatLon0.09_PT061H.grib2 2026-04-10 03:07 350K
20260410T00Z_MSC_RDPS_DewPointDepression_IsbL-0550_RLatLon0.09_PT061H.grib2 2026-04-10 03:07 366K
20260410T00Z_MSC_RDPS_DewPointDepression_IsbL-0600_RLatLon0.09_PT061H.grib2 2026-04-10 03:07 376K
20260410T00Z_MSC_RDPS_DewPointDepression_IsbL-0650_RLatLon0.09_PT061H.grib2 2026-04-10 03:07 379K
20260410T00Z_MSC_RDPS_DewPointDepression_IsbL-0700_RLatLon0.09_PT061H.grib2 2026-04-10 03:07 383K
20260410T00Z_MSC_RDPS_DewPointDepression_IsbL-0750_RLatLon0.09_PT061H.grib2 2026-04-10 03:07 404K
20260410T00Z_MSC_RDPS_DewPointDepression_IsbL-0800_RLatLon0.09_PT061H.grib2 2026-04-10 03:07 443K
20260410T00Z_MSC_RDPS_DewPointDepression_IsbL-0850_RLatLon0.09_PT061H.grib2 2026-04-10 03:07 473K
20260410T00Z_MSC_RDPS_DewPointDepression_IsbL-0875_RLatLon0.09_PT061H.grib2 2026-04-10 03:07 470K
20260410T00Z_MSC_RDPS_DewPointDepression_IsbL-0900_RLatLon0.09_PT061H.grib2 2026-04-10 03:07 458K
20260410T00Z_MSC_RDPS_DewPointDepression_IsbL-0925_RLatLon0.09_PT061H.grib2 2026-04-10 03:07 444K
20260410T00Z_MSC_RDPS_DewPointDepression_IsbL-0950_RLatLon0.09_PT061H.grib2 2026-04-10 03:07 433K
20260410T00Z_MSC_RDPS_DewPointDepression_IsbL-0970_RLatLon0.09_PT061H.grib2 2026-04-10 03:07 433K
20260410T00Z_MSC_RDPS_DewPointDepression_IsbL-0985_RLatLon0.09_PT061H.grib2 2026-04-10 03:07 434K
20260410T00Z_MSC_RDPS_DewPointDepression_IsbL-1000_RLatLon0.09_PT061H.grib2 2026-04-10 03:07 430K
20260410T00Z_MSC_RDPS_DewPointDepression_IsbL-1015_RLatLon0.09_PT061H.grib2 2026-04-10 03:07 423K
20260410T00Z_MSC_RDPS_DewPoint_AGL-2m_RLatLon0.09_PT061H.grib2 2026-04-10 03:07 314K
20260410T00Z_MSC_RDPS_DownwardLongwaveRadiationFlux-Accum_Sfc_RLatLon0.09_PT061H.grib2 2026-04-10 03:07 395K
20260410T00Z_MSC_RDPS_DownwardShortwaveRadiationFlux-Accum_NTAtm_RLatLon0.09_PT061H.grib2 2026-04-10 03:07 99K
20260410T00Z_MSC_RDPS_DownwardShortwaveRadiationFlux-Accum_Sfc_RLatLon0.09_PT061H.grib2 2026-04-10 03:07 541K
20260410T00Z_MSC_RDPS_FreezingRain-Accum1h_Sfc_RLatLon0.09_PT061H.grib2 2026-04-10 03:07 18K
20260410T00Z_MSC_RDPS_FreezingRain-Accum_Sfc_RLatLon0.09_PT061H.grib2 2026-04-10 03:07 157K
20260410T00Z_MSC_RDPS_GeopotentialHeight_IsbL-0001_RLatLon0.09_PT061H.grib2 2026-04-10 03:07 247K
20260410T00Z_MSC_RDPS_GeopotentialHeight_IsbL-0005_RLatLon0.09_PT061H.grib2 2026-04-10 03:07 273K
20260410T00Z_MSC_RDPS_GeopotentialHeight_IsbL-0010_RLatLon0.09_PT061H.grib2 2026-04-10 03:07 242K
20260410T00Z_MSC_RDPS_GeopotentialHeight_IsbL-0020_RLatLon0.09_PT061H.grib2 2026-04-10 03:07 243K
20260410T00Z_MSC_RDPS_GeopotentialHeight_IsbL-0030_RLatLon0.09_PT061H.grib2 2026-04-10 03:07 244K
20260410T00Z_MSC_RDPS_GeopotentialHeight_IsbL-0050_RLatLon0.09_PT061H.grib2 2026-04-10 03:07 274K
20260410T00Z_MSC_RDPS_GeopotentialHeight_IsbL-0100_RLatLon0.09_PT061H.grib2 2026-04-10 03:07 224K
20260410T00Z_MSC_RDPS_GeopotentialHeight_IsbL-0150_RLatLon0.09_PT061H.grib2 2026-04-10 03:07 266K
20260410T00Z_MSC_RDPS_GeopotentialHeight_IsbL-0175_RLatLon0.09_PT061H.grib2 2026-04-10 03:07 268K
20260410T00Z_MSC_RDPS_GeopotentialHeight_IsbL-0200_RLatLon0.09_PT061H.grib2 2026-04-10 03:07 270K
20260410T00Z_MSC_RDPS_GeopotentialHeight_IsbL-0225_RLatLon0.09_PT061H.grib2 2026-04-10 03:07 271K
20260410T00Z_MSC_RDPS_GeopotentialHeight_IsbL-0250_RLatLon0.09_PT061H.grib2 2026-04-10 03:07 272K
20260410T00Z_MSC_RDPS_GeopotentialHeight_IsbL-0275_RLatLon0.09_PT061H.grib2 2026-04-10 03:07 270K
20260410T00Z_MSC_RDPS_GeopotentialHeight_IsbL-0300_RLatLon0.09_PT061H.grib2 2026-04-10 03:07 269K
20260410T00Z_MSC_RDPS_GeopotentialHeight_IsbL-0350_RLatLon0.09_PT061H.grib2 2026-04-10 03:07 264K
20260410T00Z_MSC_RDPS_GeopotentialHeight_IsbL-0400_RLatLon0.09_PT061H.grib2 2026-04-10 03:07 258K
20260410T00Z_MSC_RDPS_GeopotentialHeight_IsbL-0450_RLatLon0.09_PT061H.grib2 2026-04-10 03:07 223K
20260410T00Z_MSC_RDPS_GeopotentialHeight_IsbL-0500_RLatLon0.09_PT061H.grib2 2026-04-10 03:07 219K
20260410T00Z_MSC_RDPS_GeopotentialHeight_IsbL-0550_RLatLon0.09_PT061H.grib2 2026-04-10 03:07 288K
20260410T00Z_MSC_RDPS_GeopotentialHeight_IsbL-0600_RLatLon0.09_PT061H.grib2 2026-04-10 03:07 284K
20260410T00Z_MSC_RDPS_GeopotentialHeight_IsbL-0650_RLatLon0.09_PT061H.grib2 2026-04-10 03:07 283K
20260410T00Z_MSC_RDPS_GeopotentialHeight_IsbL-0700_RLatLon0.09_PT061H.grib2 2026-04-10 03:07 255K
20260410T00Z_MSC_RDPS_GeopotentialHeight_IsbL-0750_RLatLon0.09_PT061H.grib2 2026-04-10 03:07 258K
20260410T00Z_MSC_RDPS_GeopotentialHeight_IsbL-0800_RLatLon0.09_PT061H.grib2 2026-04-10 03:07 351K
20260410T00Z_MSC_RDPS_GeopotentialHeight_IsbL-0850_RLatLon0.09_PT061H.grib2 2026-04-10 03:07 363K
20260410T00Z_MSC_RDPS_GeopotentialHeight_IsbL-0875_RLatLon0.09_PT061H.grib2 2026-04-10 03:07 363K
20260410T00Z_MSC_RDPS_GeopotentialHeight_IsbL-0900_RLatLon0.09_PT061H.grib2 2026-04-10 03:07 367K
20260410T00Z_MSC_RDPS_GeopotentialHeight_IsbL-0925_RLatLon0.09_PT061H.grib2 2026-04-10 03:07 370K
20260410T00Z_MSC_RDPS_GeopotentialHeight_IsbL-0950_RLatLon0.09_PT061H.grib2 2026-04-10 03:07 372K
20260410T00Z_MSC_RDPS_GeopotentialHeight_IsbL-0970_RLatLon0.09_PT061H.grib2 2026-04-10 03:07 376K
20260410T00Z_MSC_RDPS_GeopotentialHeight_IsbL-0985_RLatLon0.09_PT061H.grib2 2026-04-10 03:07 385K
20260410T00Z_MSC_RDPS_GeopotentialHeight_IsbL-1000_RLatLon0.09_PT061H.grib2 2026-04-10 03:07 397K
20260410T00Z_MSC_RDPS_GeopotentialHeight_IsbL-1015_RLatLon0.09_PT061H.grib2 2026-04-10 03:07 412K
20260410T00Z_MSC_RDPS_Humidex_Sfc_RLatLon0.09_PT061H.grib2 2026-04-10 03:07 2.4M
20260410T00Z_MSC_RDPS_IcePellets-Accum1h_Sfc_RLatLon0.09_PT061H.grib2 2026-04-10 03:07 6.1K
20260410T00Z_MSC_RDPS_IcePellets-Accum_Sfc_RLatLon0.09_PT061H.grib2 2026-04-10 03:07 25K
20260410T00Z_MSC_RDPS_KIndex_Sfc_RLatLon0.09_PT061H.grib2 2026-04-10 03:07 2.4M
20260410T00Z_MSC_RDPS_LatentHeatNetFlux_Sfc_RLatLon0.09_PT061H.grib2 2026-04-10 03:07 423K
20260410T00Z_MSC_RDPS_LiftedIndex-MU-VT_IsbL-0500_RLatLon0.09_PT061H.grib2 2026-04-10 03:07 2.4M
20260410T00Z_MSC_RDPS_NetLongwaveRadiationFlux-Accum_Sfc_RLatLon0.09_PT061H.grib2 2026-04-10 03:07 565K
20260410T00Z_MSC_RDPS_NetShortwaveRadiationFlux-Accum_Sfc_RLatLon0.09_PT061H.grib2 2026-04-10 03:07 553K
20260410T00Z_MSC_RDPS_PlanetaryBoundaryLayerHeight_Sfc_RLatLon0.09_PT061H.grib2 2026-04-10 03:07 1.1M
20260410T00Z_MSC_RDPS_Precip-Accum1h_Sfc_RLatLon0.09_PT061H.grib2 2026-04-10 03:07 1.3M
20260410T00Z_MSC_RDPS_Precip-Accum_Sfc_RLatLon0.09_PT061H.grib2 2026-04-10 03:07 2.1M
20260410T00Z_MSC_RDPS_PrecipRate_Sfc_RLatLon0.09_PT061H.grib2 2026-04-10 03:07 193K
20260410T00Z_MSC_RDPS_PrecipType-Instant_Sfc_RLatLon0.09_PT061H.grib2 2026-04-10 03:07 628K
20260410T00Z_MSC_RDPS_Pressure-Trend3h_Sfc_RLatLon0.09_PT061H.grib2 2026-04-10 03:07 1.2M
20260410T00Z_MSC_RDPS_Pressure_MSL_RLatLon0.09_PT061H.grib2 2026-04-10 03:07 298K
20260410T00Z_MSC_RDPS_Pressure_PVU-1.5_RLatLon0.09_PT061H.grib2 2026-04-10 03:07 2.3M
20260410T00Z_MSC_RDPS_Pressure_PVU-1_RLatLon0.09_PT061H.grib2 2026-04-10 03:07 2.4M
20260410T00Z_MSC_RDPS_Pressure_PVU-2_RLatLon0.09_PT061H.grib2 2026-04-10 03:07 2.4M
20260410T00Z_MSC_RDPS_Pressure_Sfc_RLatLon0.09_PT061H.grib2 2026-04-10 03:07 503K
20260410T00Z_MSC_RDPS_RadiativeTemp_Sfc_RLatLon0.09_PT061H.grib2 2026-04-10 03:07 307K
20260410T00Z_MSC_RDPS_Rain-Accum1h_Sfc_RLatLon0.09_PT061H.grib2 2026-04-10 03:07 655K
20260410T00Z_MSC_RDPS_Rain-Accum_Sfc_RLatLon0.09_PT061H.grib2 2026-04-10 03:07 1.7M
20260410T00Z_MSC_RDPS_RelativeHumidity_AGL-2m_RLatLon0.09_PT061H.grib2 2026-04-10 03:07 1.0M
20260410T00Z_MSC_RDPS_RelativeHumidity_IsbL-0010_RLatLon0.09_PT061H.grib2 2026-04-10 03:07 434K
20260410T00Z_MSC_RDPS_RelativeHumidity_IsbL-0020_RLatLon0.09_PT061H.grib2 2026-04-10 03:07 409K
20260410T00Z_MSC_RDPS_RelativeHumidity_IsbL-0030_RLatLon0.09_PT061H.grib2 2026-04-10 03:07 380K
20260410T00Z_MSC_RDPS_RelativeHumidity_IsbL-0050_RLatLon0.09_PT061H.grib2 2026-04-10 03:07 393K
20260410T00Z_MSC_RDPS_RelativeHumidity_IsbL-0100_RLatLon0.09_PT061H.grib2 2026-04-10 03:07 262K
20260410T00Z_MSC_RDPS_RelativeHumidity_IsbL-0150_RLatLon0.09_PT061H.grib2 2026-04-10 03:07 379K
20260410T00Z_MSC_RDPS_RelativeHumidity_IsbL-0175_RLatLon0.09_PT061H.grib2 2026-04-10 03:07 457K
20260410T00Z_MSC_RDPS_RelativeHumidity_IsbL-0200_RLatLon0.09_PT061H.grib2 2026-04-10 03:07 538K
20260410T00Z_MSC_RDPS_RelativeHumidity_IsbL-0225_RLatLon0.09_PT061H.grib2 2026-04-10 03:07 598K
20260410T00Z_MSC_RDPS_RelativeHumidity_IsbL-0250_RLatLon0.09_PT061H.grib2 2026-04-10 03:07 664K
20260410T00Z_MSC_RDPS_RelativeHumidity_IsbL-0275_RLatLon0.09_PT061H.grib2 2026-04-10 03:07 687K
20260410T00Z_MSC_RDPS_RelativeHumidity_IsbL-0300_RLatLon0.09_PT061H.grib2 2026-04-10 03:07 731K
20260410T00Z_MSC_RDPS_RelativeHumidity_IsbL-0350_RLatLon0.09_PT061H.grib2 2026-04-10 03:07 751K
20260410T00Z_MSC_RDPS_RelativeHumidity_IsbL-0400_RLatLon0.09_PT061H.grib2 2026-04-10 03:07 769K
20260410T00Z_MSC_RDPS_RelativeHumidity_IsbL-0450_RLatLon0.09_PT061H.grib2 2026-04-10 03:07 781K
20260410T00Z_MSC_RDPS_RelativeHumidity_IsbL-0500_RLatLon0.09_PT061H.grib2 2026-04-10 03:07 795K
20260410T00Z_MSC_RDPS_RelativeHumidity_IsbL-0550_RLatLon0.09_PT061H.grib2 2026-04-10 03:07 821K
20260410T00Z_MSC_RDPS_RelativeHumidity_IsbL-0600_RLatLon0.09_PT061H.grib2 2026-04-10 03:07 838K
20260410T00Z_MSC_RDPS_RelativeHumidity_IsbL-0650_RLatLon0.09_PT061H.grib2 2026-04-10 03:07 849K
20260410T00Z_MSC_RDPS_RelativeHumidity_IsbL-0700_RLatLon0.09_PT061H.grib2 2026-04-10 03:07 865K
20260410T00Z_MSC_RDPS_RelativeHumidity_IsbL-0750_RLatLon0.09_PT061H.grib2 2026-04-10 03:07 914K
20260410T00Z_MSC_RDPS_RelativeHumidity_IsbL-0800_RLatLon0.09_PT061H.grib2 2026-04-10 03:07 1.0M
20260410T00Z_MSC_RDPS_RelativeHumidity_IsbL-0850_RLatLon0.09_PT061H.grib2 2026-04-10 03:07 1.0M
20260410T00Z_MSC_RDPS_RelativeHumidity_IsbL-0875_RLatLon0.09_PT061H.grib2 2026-04-10 03:07 1.1M
20260410T00Z_MSC_RDPS_RelativeHumidity_IsbL-0900_RLatLon0.09_PT061H.grib2 2026-04-10 03:07 1.1M
20260410T00Z_MSC_RDPS_RelativeHumidity_IsbL-0925_RLatLon0.09_PT061H.grib2 2026-04-10 03:07 1.1M
20260410T00Z_MSC_RDPS_RelativeHumidity_IsbL-0950_RLatLon0.09_PT061H.grib2 2026-04-10 03:07 1.0M
20260410T00Z_MSC_RDPS_RelativeHumidity_IsbL-0970_RLatLon0.09_PT061H.grib2 2026-04-10 03:07 1.0M
20260410T00Z_MSC_RDPS_RelativeHumidity_IsbL-0985_RLatLon0.09_PT061H.grib2 2026-04-10 03:07 1.0M
20260410T00Z_MSC_RDPS_RelativeHumidity_IsbL-1000_RLatLon0.09_PT061H.grib2 2026-04-10 03:07 1.0M
20260410T00Z_MSC_RDPS_RelativeHumidity_IsbL-1015_RLatLon0.09_PT061H.grib2 2026-04-10 03:07 1.0M
20260410T00Z_MSC_RDPS_Runoff-Accum_Sfc_RLatLon0.09_PT061H.grib2 2026-04-10 03:07 58K
20260410T00Z_MSC_RDPS_SWEATIndex_Sfc_RLatLon0.09_PT061H.grib2 2026-04-10 03:07 2.4M
20260410T00Z_MSC_RDPS_SeeingIndex_EAtm_RLatLon0.09_PT061H.grib2 2026-04-10 03:07 1.0M
20260410T00Z_MSC_RDPS_SensibleHeatNetFlux_Sfc_RLatLon0.09_PT061H.grib2 2026-04-10 03:07 320K
20260410T00Z_MSC_RDPS_ShowalterIndex_IsbL-0500_RLatLon0.09_PT061H.grib2 2026-04-10 03:07 2.6M
20260410T00Z_MSC_RDPS_SkyTransparencyIndex_EAtm_RLatLon0.09_PT061H.grib2 2026-04-10 03:07 690K
20260410T00Z_MSC_RDPS_Snow-Accum1h_Sfc_RLatLon0.09_PT061H.grib2 2026-04-10 03:07 435K
20260410T00Z_MSC_RDPS_Snow-Accum_Sfc_RLatLon0.09_PT061H.grib2 2026-04-10 03:07 874K
20260410T00Z_MSC_RDPS_SnowDensity_Sfc_RLatLon0.09_PT061H.grib2 2026-04-10 03:07 178K
20260410T00Z_MSC_RDPS_SnowDepth_Sfc_RLatLon0.09_PT061H.grib2 2026-04-10 03:07 729K
20260410T00Z_MSC_RDPS_SoilTemp_DBS-0to10cm_RLatLon0.09_PT061H.grib2 2026-04-10 03:07 237K
20260410T00Z_MSC_RDPS_SoilTemp_Sfc_RLatLon0.09_PT061H.grib2 2026-04-10 03:07 277K
20260410T00Z_MSC_RDPS_SoilVolumetricIceContent_Sfc_RLatLon0.09_PT061H.grib2 2026-04-10 03:07 179K
20260410T00Z_MSC_RDPS_SoilVolumetricWaterContent_DBS-0to10cm_RLatLon0.09_PT061H.grib2 2026-04-10 03:07 239K
20260410T00Z_MSC_RDPS_SoilVolumetricWaterContent_DBS-0to1cm_RLatLon0.09_PT061H.grib2 2026-04-10 03:07 340K
20260410T00Z_MSC_RDPS_SpecificHumidity_AGL-120m_RLatLon0.09_PT061H.grib2 2026-04-10 03:07 476K
20260410T00Z_MSC_RDPS_SpecificHumidity_AGL-2m_RLatLon0.09_PT061H.grib2 2026-04-10 03:07 638K
20260410T00Z_MSC_RDPS_SpecificHumidity_AGL-40m_RLatLon0.09_PT061H.grib2 2026-04-10 03:07 483K
20260410T00Z_MSC_RDPS_SpecificHumidity_AGL-80m_RLatLon0.09_PT061H.grib2 2026-04-10 03:07 479K
20260410T00Z_MSC_RDPS_SpecificHumidity_IsbL-0001_RLatLon0.09_PT061H.grib2 2026-04-10 03:07 304K
20260410T00Z_MSC_RDPS_SpecificHumidity_IsbL-0005_RLatLon0.09_PT061H.grib2 2026-04-10 03:07 323K
20260410T00Z_MSC_RDPS_SpecificHumidity_IsbL-0010_RLatLon0.09_PT061H.grib2 2026-04-10 03:07 351K
20260410T00Z_MSC_RDPS_SpecificHumidity_IsbL-0020_RLatLon0.09_PT061H.grib2 2026-04-10 03:07 365K
20260410T00Z_MSC_RDPS_SpecificHumidity_IsbL-0030_RLatLon0.09_PT061H.grib2 2026-04-10 03:07 373K
20260410T00Z_MSC_RDPS_SpecificHumidity_IsbL-0050_RLatLon0.09_PT061H.grib2 2026-04-10 03:07 467K
20260410T00Z_MSC_RDPS_SpecificHumidity_IsbL-0100_RLatLon0.09_PT061H.grib2 2026-04-10 03:07 379K
20260410T00Z_MSC_RDPS_SpecificHumidity_IsbL-0150_RLatLon0.09_PT061H.grib2 2026-04-10 03:07 426K
20260410T00Z_MSC_RDPS_SpecificHumidity_IsbL-0175_RLatLon0.09_PT061H.grib2 2026-04-10 03:07 408K
20260410T00Z_MSC_RDPS_SpecificHumidity_IsbL-0200_RLatLon0.09_PT061H.grib2 2026-04-10 03:07 425K
20260410T00Z_MSC_RDPS_SpecificHumidity_IsbL-0225_RLatLon0.09_PT061H.grib2 2026-04-10 03:07 424K
20260410T00Z_MSC_RDPS_SpecificHumidity_IsbL-0250_RLatLon0.09_PT061H.grib2 2026-04-10 03:07 485K
20260410T00Z_MSC_RDPS_SpecificHumidity_IsbL-0275_RLatLon0.09_PT061H.grib2 2026-04-10 03:07 446K
20260410T00Z_MSC_RDPS_SpecificHumidity_IsbL-0300_RLatLon0.09_PT061H.grib2 2026-04-10 03:07 420K
20260410T00Z_MSC_RDPS_SpecificHumidity_IsbL-0350_RLatLon0.09_PT061H.grib2 2026-04-10 03:07 506K
20260410T00Z_MSC_RDPS_SpecificHumidity_IsbL-0400_RLatLon0.09_PT061H.grib2 2026-04-10 03:07 492K
20260410T00Z_MSC_RDPS_SpecificHumidity_IsbL-0450_RLatLon0.09_PT061H.grib2 2026-04-10 03:07 551K
20260410T00Z_MSC_RDPS_SpecificHumidity_IsbL-0500_RLatLon0.09_PT061H.grib2 2026-04-10 03:07 495K
20260410T00Z_MSC_RDPS_SpecificHumidity_IsbL-0550_RLatLon0.09_PT061H.grib2 2026-04-10 03:07 557K
20260410T00Z_MSC_RDPS_SpecificHumidity_IsbL-0600_RLatLon0.09_PT061H.grib2 2026-04-10 03:07 623K
20260410T00Z_MSC_RDPS_SpecificHumidity_IsbL-0650_RLatLon0.09_PT061H.grib2 2026-04-10 03:07 536K
20260410T00Z_MSC_RDPS_SpecificHumidity_IsbL-0700_RLatLon0.09_PT061H.grib2 2026-04-10 03:07 571K
20260410T00Z_MSC_RDPS_SpecificHumidity_IsbL-0750_RLatLon0.09_PT061H.grib2 2026-04-10 03:07 622K
20260410T00Z_MSC_RDPS_SpecificHumidity_IsbL-0800_RLatLon0.09_PT061H.grib2 2026-04-10 03:07 701K
20260410T00Z_MSC_RDPS_SpecificHumidity_IsbL-0850_RLatLon0.09_PT061H.grib2 2026-04-10 03:07 783K
20260410T00Z_MSC_RDPS_SpecificHumidity_IsbL-0875_RLatLon0.09_PT061H.grib2 2026-04-10 03:07 803K
20260410T00Z_MSC_RDPS_SpecificHumidity_IsbL-0900_RLatLon0.09_PT061H.grib2 2026-04-10 03:07 813K
20260410T00Z_MSC_RDPS_SpecificHumidity_IsbL-0925_RLatLon0.09_PT061H.grib2 2026-04-10 03:07 814K
20260410T00Z_MSC_RDPS_SpecificHumidity_IsbL-0950_RLatLon0.09_PT061H.grib2 2026-04-10 03:07 812K
20260410T00Z_MSC_RDPS_SpecificHumidity_IsbL-0970_RLatLon0.09_PT061H.grib2 2026-04-10 03:07 671K
20260410T00Z_MSC_RDPS_SpecificHumidity_IsbL-0985_RLatLon0.09_PT061H.grib2 2026-04-10 03:07 667K
20260410T00Z_MSC_RDPS_SpecificHumidity_IsbL-1000_RLatLon0.09_PT061H.grib2 2026-04-10 03:07 658K
20260410T00Z_MSC_RDPS_SpecificHumidity_IsbL-1015_RLatLon0.09_PT061H.grib2 2026-04-10 03:07 650K
20260410T00Z_MSC_RDPS_SpecificHumidity_Sfc_RLatLon0.09_PT061H.grib2 2026-04-10 03:07 284K
20260410T00Z_MSC_RDPS_StormRelativeHelicity_EtaL-10000_RLatLon0.09_PT061H.grib2 2026-04-10 03:07 1.1M
20260410T00Z_MSC_RDPS_StormSeverityIndex_EtaL-10000_RLatLon0.09_PT061H.grib2 2026-04-10 03:07 1.2M
20260410T00Z_MSC_RDPS_Thickness_IsbL-0850to0700_RLatLon0.09_PT061H.grib2 2026-04-10 03:07 196K
20260410T00Z_MSC_RDPS_Thickness_IsbL-1000to0500_RLatLon0.09_PT061H.grib2 2026-04-10 03:07 137K
20260410T00Z_MSC_RDPS_Thickness_IsbL-1000to0850_RLatLon0.09_PT061H.grib2 2026-04-10 03:07 187K
20260410T00Z_MSC_RDPS_TotalCloudCover_Sfc_RLatLon0.09_PT061H.grib2 2026-04-10 03:07 641K
20260410T00Z_MSC_RDPS_TotalTotalsIndex_Sfc_RLatLon0.09_PT061H.grib2 2026-04-10 03:07 2.4M
20260410T00Z_MSC_RDPS_UVIndex-ClearSky_Sfc_RLatLon0.09_PT061H.grib2 2026-04-10 03:07 164K
20260410T00Z_MSC_RDPS_UVIndex_Sfc_RLatLon0.09_PT061H.grib2 2026-04-10 03:07 365K
20260410T00Z_MSC_RDPS_UpwardLongwaveRadiationFlux_NTAtm_RLatLon0.09_PT061H.grib2 2026-04-10 03:07 474K
20260410T00Z_MSC_RDPS_UpwardShortwaveRadiationFlux_NTAtm_RLatLon0.09_PT061H.grib2 2026-04-10 03:07 323K
20260410T00Z_MSC_RDPS_VerticalVelocity_IsbL-0250_RLatLon0.09_PT061H.grib2 2026-04-10 03:07 588K
20260410T00Z_MSC_RDPS_VerticalVelocity_IsbL-0500_RLatLon0.09_PT061H.grib2 2026-04-10 03:07 547K
20260410T00Z_MSC_RDPS_VerticalVelocity_IsbL-0700_RLatLon0.09_PT061H.grib2 2026-04-10 03:07 625K
20260410T00Z_MSC_RDPS_VerticalVelocity_IsbL-0850_RLatLon0.09_PT061H.grib2 2026-04-10 03:07 700K
20260410T00Z_MSC_RDPS_VerticalWindShear_EtaL-6500_RLatLon0.09_PT061H.grib2 2026-04-10 03:07 1.2M
20260410T00Z_MSC_RDPS_WindChill_Sfc_RLatLon0.09_PT061H.grib2 2026-04-10 03:07 1.3M
20260410T00Z_MSC_RDPS_WindDir_AGL-10m_RLatLon0.09_PT061H.grib2 2026-04-10 03:07 954K
20260410T00Z_MSC_RDPS_WindDir_AGL-120m_RLatLon0.09_PT061H.grib2 2026-04-10 03:07 587K
20260410T00Z_MSC_RDPS_WindDir_AGL-40m_RLatLon0.09_PT061H.grib2 2026-04-10 03:07 619K
20260410T00Z_MSC_RDPS_WindDir_AGL-80m_RLatLon0.09_PT061H.grib2 2026-04-10 03:07 599K
20260410T00Z_MSC_RDPS_WindDir_IsbL-0001_RLatLon0.09_PT061H.grib2 2026-04-10 03:07 261K
20260410T00Z_MSC_RDPS_WindDir_IsbL-0005_RLatLon0.09_PT061H.grib2 2026-04-10 03:07 313K
20260410T00Z_MSC_RDPS_WindDir_IsbL-0010_RLatLon0.09_PT061H.grib2 2026-04-10 03:07 347K
20260410T00Z_MSC_RDPS_WindDir_IsbL-0020_RLatLon0.09_PT061H.grib2 2026-04-10 03:07 375K
20260410T00Z_MSC_RDPS_WindDir_IsbL-0030_RLatLon0.09_PT061H.grib2 2026-04-10 03:07 365K
20260410T00Z_MSC_RDPS_WindDir_IsbL-0050_RLatLon0.09_PT061H.grib2 2026-04-10 03:07 387K
20260410T00Z_MSC_RDPS_WindDir_IsbL-0100_RLatLon0.09_PT061H.grib2 2026-04-10 03:07 381K
20260410T00Z_MSC_RDPS_WindDir_IsbL-0150_RLatLon0.09_PT061H.grib2 2026-04-10 03:07 372K
20260410T00Z_MSC_RDPS_WindDir_IsbL-0175_RLatLon0.09_PT061H.grib2 2026-04-10 03:07 391K
20260410T00Z_MSC_RDPS_WindDir_IsbL-0200_RLatLon0.09_PT061H.grib2 2026-04-10 03:07 404K
20260410T00Z_MSC_RDPS_WindDir_IsbL-0225_RLatLon0.09_PT061H.grib2 2026-04-10 03:07 406K
20260410T00Z_MSC_RDPS_WindDir_IsbL-0250_RLatLon0.09_PT061H.grib2 2026-04-10 03:07 408K
20260410T00Z_MSC_RDPS_WindDir_IsbL-0275_RLatLon0.09_PT061H.grib2 2026-04-10 03:07 428K
20260410T00Z_MSC_RDPS_WindDir_IsbL-0300_RLatLon0.09_PT061H.grib2 2026-04-10 03:07 435K
20260410T00Z_MSC_RDPS_WindDir_IsbL-0350_RLatLon0.09_PT061H.grib2 2026-04-10 03:07 474K
20260410T00Z_MSC_RDPS_WindDir_IsbL-0400_RLatLon0.09_PT061H.grib2 2026-04-10 03:07 502K
20260410T00Z_MSC_RDPS_WindDir_IsbL-0450_RLatLon0.09_PT061H.grib2 2026-04-10 03:07 516K
20260410T00Z_MSC_RDPS_WindDir_IsbL-0500_RLatLon0.09_PT061H.grib2 2026-04-10 03:07 541K
20260410T00Z_MSC_RDPS_WindDir_IsbL-0550_RLatLon0.09_PT061H.grib2 2026-04-10 03:07 563K
20260410T00Z_MSC_RDPS_WindDir_IsbL-0600_RLatLon0.09_PT061H.grib2 2026-04-10 03:07 588K
20260410T00Z_MSC_RDPS_WindDir_IsbL-0650_RLatLon0.09_PT061H.grib2 2026-04-10 03:07 628K
20260410T00Z_MSC_RDPS_WindDir_IsbL-0700_RLatLon0.09_PT061H.grib2 2026-04-10 03:07 661K
20260410T00Z_MSC_RDPS_WindDir_IsbL-0750_RLatLon0.09_PT061H.grib2 2026-04-10 03:07 694K
20260410T00Z_MSC_RDPS_WindDir_IsbL-0800_RLatLon0.09_PT061H.grib2 2026-04-10 03:07 754K
20260410T00Z_MSC_RDPS_WindDir_IsbL-0850_RLatLon0.09_PT061H.grib2 2026-04-10 03:07 825K
20260410T00Z_MSC_RDPS_WindDir_IsbL-0875_RLatLon0.09_PT061H.grib2 2026-04-10 03:07 853K
20260410T00Z_MSC_RDPS_WindDir_IsbL-0900_RLatLon0.09_PT061H.grib2 2026-04-10 03:07 870K
20260410T00Z_MSC_RDPS_WindDir_IsbL-0925_RLatLon0.09_PT061H.grib2 2026-04-10 03:07 883K
20260410T00Z_MSC_RDPS_WindDir_IsbL-0950_RLatLon0.09_PT061H.grib2 2026-04-10 03:07 891K
20260410T00Z_MSC_RDPS_WindDir_IsbL-0970_RLatLon0.09_PT061H.grib2 2026-04-10 03:07 899K
20260410T00Z_MSC_RDPS_WindDir_IsbL-0985_RLatLon0.09_PT061H.grib2 2026-04-10 03:07 910K
20260410T00Z_MSC_RDPS_WindDir_IsbL-1000_RLatLon0.09_PT061H.grib2 2026-04-10 03:07 925K
20260410T00Z_MSC_RDPS_WindDir_IsbL-1015_RLatLon0.09_PT061H.grib2 2026-04-10 03:07 942K
20260410T00Z_MSC_RDPS_WindGust-Max_AGL-10m_RLatLon0.09_PT061H.grib2 2026-04-10 03:07 1.0M
20260410T00Z_MSC_RDPS_WindGust-Min_AGL-10m_RLatLon0.09_PT061H.grib2 2026-04-10 03:07 1.0M
20260410T00Z_MSC_RDPS_WindGust_AGL-10m_RLatLon0.09_PT061H.grib2 2026-04-10 03:07 1.0M
20260410T00Z_MSC_RDPS_WindSpeed_AGL-10m_RLatLon0.09_PT061H.grib2 2026-04-10 03:07 846K
20260410T00Z_MSC_RDPS_WindSpeed_AGL-120m_RLatLon0.09_PT061H.grib2 2026-04-10 03:07 546K
20260410T00Z_MSC_RDPS_WindSpeed_AGL-40m_RLatLon0.09_PT061H.grib2 2026-04-10 03:07 547K
20260410T00Z_MSC_RDPS_WindSpeed_AGL-80m_RLatLon0.09_PT061H.grib2 2026-04-10 03:07 547K
20260410T00Z_MSC_RDPS_WindSpeed_IsbL-0001_RLatLon0.09_PT061H.grib2 2026-04-10 03:07 270K
20260410T00Z_MSC_RDPS_WindSpeed_IsbL-0005_RLatLon0.09_PT061H.grib2 2026-04-10 03:07 314K
20260410T00Z_MSC_RDPS_WindSpeed_IsbL-0010_RLatLon0.09_PT061H.grib2 2026-04-10 03:07 357K
20260410T00Z_MSC_RDPS_WindSpeed_IsbL-0020_RLatLon0.09_PT061H.grib2 2026-04-10 03:07 346K
20260410T00Z_MSC_RDPS_WindSpeed_IsbL-0030_RLatLon0.09_PT061H.grib2 2026-04-10 03:07 345K
20260410T00Z_MSC_RDPS_WindSpeed_IsbL-0050_RLatLon0.09_PT061H.grib2 2026-04-10 03:07 377K
20260410T00Z_MSC_RDPS_WindSpeed_IsbL-0100_RLatLon0.09_PT061H.grib2 2026-04-10 03:07 489K
20260410T00Z_MSC_RDPS_WindSpeed_IsbL-0150_RLatLon0.09_PT061H.grib2 2026-04-10 03:07 372K
20260410T00Z_MSC_RDPS_WindSpeed_IsbL-0175_RLatLon0.09_PT061H.grib2 2026-04-10 03:07 420K
20260410T00Z_MSC_RDPS_WindSpeed_IsbL-0200_RLatLon0.09_PT061H.grib2 2026-04-10 03:07 437K
20260410T00Z_MSC_RDPS_WindSpeed_IsbL-0225_RLatLon0.09_PT061H.grib2 2026-04-10 03:07 423K
20260410T00Z_MSC_RDPS_WindSpeed_IsbL-0250_RLatLon0.09_PT061H.grib2 2026-04-10 03:07 445K
20260410T00Z_MSC_RDPS_WindSpeed_IsbL-0275_RLatLon0.09_PT061H.grib2 2026-04-10 03:07 460K
20260410T00Z_MSC_RDPS_WindSpeed_IsbL-0300_RLatLon0.09_PT061H.grib2 2026-04-10 03:07 460K
20260410T00Z_MSC_RDPS_WindSpeed_IsbL-0350_RLatLon0.09_PT061H.grib2 2026-04-10 03:07 472K
20260410T00Z_MSC_RDPS_WindSpeed_IsbL-0400_RLatLon0.09_PT061H.grib2 2026-04-10 03:07 476K
20260410T00Z_MSC_RDPS_WindSpeed_IsbL-0450_RLatLon0.09_PT061H.grib2 2026-04-10 03:07 457K
20260410T00Z_MSC_RDPS_WindSpeed_IsbL-0500_RLatLon0.09_PT061H.grib2 2026-04-10 03:07 459K
20260410T00Z_MSC_RDPS_WindSpeed_IsbL-0550_RLatLon0.09_PT061H.grib2 2026-04-10 03:07 462K
20260410T00Z_MSC_RDPS_WindSpeed_IsbL-0600_RLatLon0.09_PT061H.grib2 2026-04-10 03:07 593K
20260410T00Z_MSC_RDPS_WindSpeed_IsbL-0650_RLatLon0.09_PT061H.grib2 2026-04-10 03:07 614K
20260410T00Z_MSC_RDPS_WindSpeed_IsbL-0700_RLatLon0.09_PT061H.grib2 2026-04-10 03:07 681K
20260410T00Z_MSC_RDPS_WindSpeed_IsbL-0750_RLatLon0.09_PT061H.grib2 2026-04-10 03:07 711K
20260410T00Z_MSC_RDPS_WindSpeed_IsbL-0800_RLatLon0.09_PT061H.grib2 2026-04-10 03:07 765K
20260410T00Z_MSC_RDPS_WindSpeed_IsbL-0850_RLatLon0.09_PT061H.grib2 2026-04-10 03:07 825K
20260410T00Z_MSC_RDPS_WindSpeed_IsbL-0875_RLatLon0.09_PT061H.grib2 2026-04-10 03:07 846K
20260410T00Z_MSC_RDPS_WindSpeed_IsbL-0900_RLatLon0.09_PT061H.grib2 2026-04-10 03:07 860K
20260410T00Z_MSC_RDPS_WindSpeed_IsbL-0925_RLatLon0.09_PT061H.grib2 2026-04-10 03:07 871K
20260410T00Z_MSC_RDPS_WindSpeed_IsbL-0950_RLatLon0.09_PT061H.grib2 2026-04-10 03:07 873K
20260410T00Z_MSC_RDPS_WindSpeed_IsbL-0970_RLatLon0.09_PT061H.grib2 2026-04-10 03:07 868K
20260410T00Z_MSC_RDPS_WindSpeed_IsbL-0985_RLatLon0.09_PT061H.grib2 2026-04-10 03:07 863K
20260410T00Z_MSC_RDPS_WindSpeed_IsbL-1000_RLatLon0.09_PT061H.grib2 2026-04-10 03:07 857K
20260410T00Z_MSC_RDPS_WindSpeed_IsbL-1015_RLatLon0.09_PT061H.grib2 2026-04-10 03:07 847K
20260410T00Z_MSC_RDPS_WindU_AGL-10m_RLatLon0.09_PT061H.grib2 2026-04-10 03:07 435K
20260410T00Z_MSC_RDPS_WindU_AGL-120m_RLatLon0.09_PT061H.grib2 2026-04-10 03:07 541K
20260410T00Z_MSC_RDPS_WindU_AGL-40m_RLatLon0.09_PT061H.grib2 2026-04-10 03:07 542K
20260410T00Z_MSC_RDPS_WindU_AGL-80m_RLatLon0.09_PT061H.grib2 2026-04-10 03:07 542K
20260410T00Z_MSC_RDPS_WindU_IsbL-0001_RLatLon0.09_PT061H.grib2 2026-04-10 03:07 267K
20260410T00Z_MSC_RDPS_WindU_IsbL-0005_RLatLon0.09_PT061H.grib2 2026-04-10 03:07 242K
20260410T00Z_MSC_RDPS_WindU_IsbL-0010_RLatLon0.09_PT061H.grib2 2026-04-10 03:07 250K
20260410T00Z_MSC_RDPS_WindU_IsbL-0020_RLatLon0.09_PT061H.grib2 2026-04-10 03:07 341K
20260410T00Z_MSC_RDPS_WindU_IsbL-0030_RLatLon0.09_PT061H.grib2 2026-04-10 03:07 343K
20260410T00Z_MSC_RDPS_WindU_IsbL-0050_RLatLon0.09_PT061H.grib2 2026-04-10 03:07 284K
20260410T00Z_MSC_RDPS_WindU_IsbL-0100_RLatLon0.09_PT061H.grib2 2026-04-10 03:07 344K
20260410T00Z_MSC_RDPS_WindU_IsbL-0150_RLatLon0.09_PT061H.grib2 2026-04-10 03:07 390K
20260410T00Z_MSC_RDPS_WindU_IsbL-0175_RLatLon0.09_PT061H.grib2 2026-04-10 03:07 415K
20260410T00Z_MSC_RDPS_WindU_IsbL-0200_RLatLon0.09_PT061H.grib2 2026-04-10 03:07 431K
20260410T00Z_MSC_RDPS_WindU_IsbL-0225_RLatLon0.09_PT061H.grib2 2026-04-10 03:07 337K
20260410T00Z_MSC_RDPS_WindU_IsbL-0250_RLatLon0.09_PT061H.grib2 2026-04-10 03:07 339K
20260410T00Z_MSC_RDPS_WindU_IsbL-0275_RLatLon0.09_PT061H.grib2 2026-04-10 03:07 352K
20260410T00Z_MSC_RDPS_WindU_IsbL-0300_RLatLon0.09_PT061H.grib2 2026-04-10 03:07 350K
20260410T00Z_MSC_RDPS_WindU_IsbL-0350_RLatLon0.09_PT061H.grib2 2026-04-10 03:07 359K
20260410T00Z_MSC_RDPS_WindU_IsbL-0400_RLatLon0.09_PT061H.grib2 2026-04-10 03:07 361K
20260410T00Z_MSC_RDPS_WindU_IsbL-0450_RLatLon0.09_PT061H.grib2 2026-04-10 03:07 464K
20260410T00Z_MSC_RDPS_WindU_IsbL-0500_RLatLon0.09_PT061H.grib2 2026-04-10 03:07 466K
20260410T00Z_MSC_RDPS_WindU_IsbL-0550_RLatLon0.09_PT061H.grib2 2026-04-10 03:07 470K
20260410T00Z_MSC_RDPS_WindU_IsbL-0600_RLatLon0.09_PT061H.grib2 2026-04-10 03:07 481K
20260410T00Z_MSC_RDPS_WindU_IsbL-0650_RLatLon0.09_PT061H.grib2 2026-04-10 03:07 500K
20260410T00Z_MSC_RDPS_WindU_IsbL-0700_RLatLon0.09_PT061H.grib2 2026-04-10 03:07 505K
20260410T00Z_MSC_RDPS_WindU_IsbL-0750_RLatLon0.09_PT061H.grib2 2026-04-10 03:07 533K
20260410T00Z_MSC_RDPS_WindU_IsbL-0800_RLatLon0.09_PT061H.grib2 2026-04-10 03:07 580K
20260410T00Z_MSC_RDPS_WindU_IsbL-0850_RLatLon0.09_PT061H.grib2 2026-04-10 03:07 633K
20260410T00Z_MSC_RDPS_WindU_IsbL-0875_RLatLon0.09_PT061H.grib2 2026-04-10 03:07 650K
20260410T00Z_MSC_RDPS_WindU_IsbL-0900_RLatLon0.09_PT061H.grib2 2026-04-10 03:07 661K
20260410T00Z_MSC_RDPS_WindU_IsbL-0925_RLatLon0.09_PT061H.grib2 2026-04-10 03:07 667K
20260410T00Z_MSC_RDPS_WindU_IsbL-0950_RLatLon0.09_PT061H.grib2 2026-04-10 03:07 666K
20260410T00Z_MSC_RDPS_WindU_IsbL-0970_RLatLon0.09_PT061H.grib2 2026-04-10 03:07 662K
20260410T00Z_MSC_RDPS_WindU_IsbL-0985_RLatLon0.09_PT061H.grib2 2026-04-10 03:07 658K
20260410T00Z_MSC_RDPS_WindU_IsbL-1000_RLatLon0.09_PT061H.grib2 2026-04-10 03:07 792K
20260410T00Z_MSC_RDPS_WindU_IsbL-1015_RLatLon0.09_PT061H.grib2 2026-04-10 03:07 785K
20260410T00Z_MSC_RDPS_WindV_AGL-10m_RLatLon0.09_PT061H.grib2 2026-04-10 03:07 435K
20260410T00Z_MSC_RDPS_WindV_AGL-120m_RLatLon0.09_PT061H.grib2 2026-04-10 03:07 541K
20260410T00Z_MSC_RDPS_WindV_AGL-40m_RLatLon0.09_PT061H.grib2 2026-04-10 03:07 543K
20260410T00Z_MSC_RDPS_WindV_AGL-80m_RLatLon0.09_PT061H.grib2 2026-04-10 03:07 542K
20260410T00Z_MSC_RDPS_WindV_IsbL-0001_RLatLon0.09_PT061H.grib2 2026-04-10 03:07 250K
20260410T00Z_MSC_RDPS_WindV_IsbL-0005_RLatLon0.09_PT061H.grib2 2026-04-10 03:07 240K
20260410T00Z_MSC_RDPS_WindV_IsbL-0010_RLatLon0.09_PT061H.grib2 2026-04-10 03:07 320K
20260410T00Z_MSC_RDPS_WindV_IsbL-0020_RLatLon0.09_PT061H.grib2 2026-04-10 03:07 375K
20260410T00Z_MSC_RDPS_WindV_IsbL-0030_RLatLon0.09_PT061H.grib2 2026-04-10 03:07 373K
20260410T00Z_MSC_RDPS_WindV_IsbL-0050_RLatLon0.09_PT061H.grib2 2026-04-10 03:07 366K
20260410T00Z_MSC_RDPS_WindV_IsbL-0100_RLatLon0.09_PT061H.grib2 2026-04-10 03:07 339K
20260410T00Z_MSC_RDPS_WindV_IsbL-0150_RLatLon0.09_PT061H.grib2 2026-04-10 03:07 386K
20260410T00Z_MSC_RDPS_WindV_IsbL-0175_RLatLon0.09_PT061H.grib2 2026-04-10 03:07 411K
20260410T00Z_MSC_RDPS_WindV_IsbL-0200_RLatLon0.09_PT061H.grib2 2026-04-10 03:07 331K
20260410T00Z_MSC_RDPS_WindV_IsbL-0225_RLatLon0.09_PT061H.grib2 2026-04-10 03:07 334K
20260410T00Z_MSC_RDPS_WindV_IsbL-0250_RLatLon0.09_PT061H.grib2 2026-04-10 03:07 335K
20260410T00Z_MSC_RDPS_WindV_IsbL-0275_RLatLon0.09_PT061H.grib2 2026-04-10 03:07 347K
20260410T00Z_MSC_RDPS_WindV_IsbL-0300_RLatLon0.09_PT061H.grib2 2026-04-10 03:07 345K
20260410T00Z_MSC_RDPS_WindV_IsbL-0350_RLatLon0.09_PT061H.grib2 2026-04-10 03:07 356K
20260410T00Z_MSC_RDPS_WindV_IsbL-0400_RLatLon0.09_PT061H.grib2 2026-04-10 03:07 358K
20260410T00Z_MSC_RDPS_WindV_IsbL-0450_RLatLon0.09_PT061H.grib2 2026-04-10 03:07 358K
20260410T00Z_MSC_RDPS_WindV_IsbL-0500_RLatLon0.09_PT061H.grib2 2026-04-10 03:07 360K
20260410T00Z_MSC_RDPS_WindV_IsbL-0550_RLatLon0.09_PT061H.grib2 2026-04-10 03:07 465K
20260410T00Z_MSC_RDPS_WindV_IsbL-0600_RLatLon0.09_PT061H.grib2 2026-04-10 03:07 475K
20260410T00Z_MSC_RDPS_WindV_IsbL-0650_RLatLon0.09_PT061H.grib2 2026-04-10 03:07 495K
20260410T00Z_MSC_RDPS_WindV_IsbL-0700_RLatLon0.09_PT061H.grib2 2026-04-10 03:07 514K
20260410T00Z_MSC_RDPS_WindV_IsbL-0750_RLatLon0.09_PT061H.grib2 2026-04-10 03:07 526K
20260410T00Z_MSC_RDPS_WindV_IsbL-0800_RLatLon0.09_PT061H.grib2 2026-04-10 03:07 574K
20260410T00Z_MSC_RDPS_WindV_IsbL-0850_RLatLon0.09_PT061H.grib2 2026-04-10 03:07 629K
20260410T00Z_MSC_RDPS_WindV_IsbL-0875_RLatLon0.09_PT061H.grib2 2026-04-10 03:07 646K
20260410T00Z_MSC_RDPS_WindV_IsbL-0900_RLatLon0.09_PT061H.grib2 2026-04-10 03:07 664K
20260410T00Z_MSC_RDPS_WindV_IsbL-0925_RLatLon0.09_PT061H.grib2 2026-04-10 03:07 671K
20260410T00Z_MSC_RDPS_WindV_IsbL-0950_RLatLon0.09_PT061H.grib2 2026-04-10 03:07 663K
20260410T00Z_MSC_RDPS_WindV_IsbL-0970_RLatLon0.09_PT061H.grib2 2026-04-10 03:07 662K
20260410T00Z_MSC_RDPS_WindV_IsbL-0985_RLatLon0.09_PT061H.grib2 2026-04-10 03:07 799K
20260410T00Z_MSC_RDPS_WindV_IsbL-1000_RLatLon0.09_PT061H.grib2 2026-04-10 03:07 793K
20260410T00Z_MSC_RDPS_WindV_IsbL-1015_RLatLon0.09_PT061H.grib2 2026-04-10 03:07 833K